Stafford, VA

4:12 AM EDT on October 19, 2017 (GMT -0400)
Stafford

Weather History for KRMN - December, 2012

Change the Weather History Date:

Thursday, December 6, 2012

  Actual Average (KNYG) Record (KNYG)
Temperature  
Mean Temperature 34 °F -  
Max Temperature 45 °F 48 °F 78 °F (1998)
Min Temperature 25 °F 32 °F 19 °F (2002)
Degree Days  
Heating Degree Days 30    
Moisture  
Dew Point 24 °F    
Average Humidity 66    
Maximum Humidity 88    
Minimum Humidity 42    
Precipitation  
Precipitation 0.00 in - - ()
Sea Level Pressure  
Sea Level Pressure 30.36 in    
Wind  
Wind Speed 4 mph (NNE)    
Max Wind Speed 12 mph    
Max Gust Speed 18 mph    
Visibility 10 miles    
Events      
Averages and records for this station are not official NWS values.
T = Trace of Precipitation, MM = Missing Value Source: NWS Daily Summary

Daily Weather History Graph

Daily Weather History Graph

Search for Another Location

Airport or City:

Trip Planner

Search our weather history database for the weather conditions in past years. The results will help you decide how hot, cold, wet, or windy it might be!

Date:

Astronomy

Dec. 06, 2012 Rise Set
Actual Time 7:13 AM EST 4:48 PM EST
Civil Twilight 6:43 AM EST 5:18 PM EST
Nautical Twilight 6:10 AM EST 5:51 PM EST
Astronomical Twilight 5:38 AM EST 6:23 PM EST
Moon No Moon Rise 12:09 PM EST (12/6)
Length of Visible Light 10h 34m
Length of Day
9h 35m
Waning Gibbous, 49% of the Moon is Illuminated
Dec 6
Waning Gibbous
Dec 13
New
Dec 20
First Quarter
Dec 28
Full
Jan 4
Last Quarter

Hourly Weather History & Observations

Time (EST) Temp. Windchill Dew Point Humidity Pressure Visibility Wind Dir Wind Speed Gust Speed Precip Events Conditions
12:15 AM 39.2 °F 32.0 °F 25.0 °F 57% 30.34 in 10.0 mi North 11.5 mph 18.4 mph N/A   Clear
12:35 AM 38.3 °F 33.2 °F 24.6 °F 58% 30.34 in 10.0 mi NNW 6.9 mph - N/A   Clear
12:55 AM 36.7 °F - 24.6 °F 62% 30.35 in 10.0 mi Calm Calm - N/A   Clear
1:15 AM 35.6 °F 29.2 °F 24.3 °F 63% 30.35 in 10.0 mi NNW 8.1 mph - N/A   Clear
1:35 AM 35.6 °F 31.7 °F 23.9 °F 62% 30.35 in 10.0 mi North 4.6 mph - N/A   Clear
1:55 AM 34.5 °F 31.6 °F 23.9 °F 65% 30.36 in 10.0 mi NNW 3.5 mph - N/A   Clear
2:15 AM 32.7 °F 28.3 °F 23.9 °F 70% 30.37 in 10.0 mi North 4.6 mph - N/A   Clear
2:35 AM 32.4 °F 26.9 °F 23.7 °F 70% 30.36 in 10.0 mi North 5.8 mph - N/A   Clear
2:55 AM 32.5 °F 29.3 °F 23.7 °F 70% 30.37 in 10.0 mi NNW 3.5 mph - N/A   Clear
3:15 AM 30.0 °F - 23.2 °F 76% 30.37 in 10.0 mi Calm Calm - N/A   Clear
3:35 AM 30.0 °F 25.2 °F 23.7 °F 77% 30.37 in 10.0 mi NNW 4.6 mph - N/A   Clear
3:55 AM 28.6 °F - 23.5 °F 81% 30.38 in 10.0 mi Calm Calm - N/A   Clear
4:15 AM 28.4 °F 24.6 °F 23.2 °F 81% 30.38 in 10.0 mi North 3.5 mph - N/A   Clear
4:35 AM 27.5 °F 22.2 °F 23.4 °F 84% 30.38 in 10.0 mi NNW 4.6 mph - N/A   Clear
4:55 AM 27.1 °F 21.8 °F 22.5 °F 83% 30.38 in 10.0 mi NNW 4.6 mph - N/A   Clear
5:15 AM 31.1 °F 25.4 °F 23.5 °F 74% 30.38 in 10.0 mi North 5.8 mph - N/A   Clear
5:35 AM 31.8 °F 27.3 °F 23.5 °F 71% 30.38 in 10.0 mi North 4.6 mph - N/A   Clear
5:55 AM 30.6 °F - 23.2 °F 74% 30.38 in 10.0 mi Calm Calm - N/A   Clear
6:15 AM 30.7 °F 24.9 °F 23.4 °F 74% 30.39 in 10.0 mi North 5.8 mph - N/A   Clear
6:35 AM 30.9 °F 26.2 °F 23.4 °F 74% 30.40 in 10.0 mi North 4.6 mph - N/A   Clear
6:55 AM 30.2 °F - 23.2 °F 75% 30.40 in 10.0 mi Calm Calm - N/A   Clear
7:15 AM 28.4 °F 24.6 °F 23.0 °F 80% 30.40 in 10.0 mi North 3.5 mph - N/A   Clear
7:35 AM 25.7 °F 21.5 °F 22.5 °F 88% 30.41 in 10.0 mi NNW 3.5 mph - N/A   Clear
7:55 AM 27.5 °F 23.6 °F 24.1 °F 87% 30.42 in 10.0 mi North 3.5 mph - N/A   Clear
8:15 AM 29.8 °F 23.9 °F 25.7 °F 85% 30.43 in 10.0 mi NW 5.8 mph - N/A   Clear
8:35 AM 33.6 °F 30.6 °F 25.7 °F 73% 30.43 in 10.0 mi North 3.5 mph - N/A   Clear
8:55 AM 35.6 °F 30.7 °F 25.0 °F 65% 30.43 in 10.0 mi NNE 5.8 mph - N/A   Clear
9:15 AM 36.7 °F 29.9 °F 23.7 °F 59% 30.43 in 10.0 mi NE 9.2 mph - N/A   Clear
9:35 AM 38.3 °F 31.9 °F 23.9 °F 56% 30.43 in 10.0 mi ENE 9.2 mph - N/A   Clear
10:15 AM 39.2 °F 35.0 °F 23.7 °F 54% 30.44 in 10.0 mi North 5.8 mph - N/A   Clear
10:35 AM 40.1 °F 36.1 °F 23.5 °F 52% 30.43 in 10.0 mi NE 5.8 mph - N/A   Clear
10:55 AM 40.5 °F 38.4 °F 22.8 °F 49% 30.43 in 10.0 mi NE 3.5 mph - N/A   Clear
11:15 AM 41.5 °F 39.6 °F 23.2 °F 48% 30.42 in 10.0 mi ENE 3.5 mph - N/A   Clear
11:35 AM 42.1 °F 38.4 °F 23.9 °F 49% 30.40 in 10.0 mi ESE 5.8 mph - N/A   Clear
11:55 AM 41.9 °F - 23.2 °F 47% 30.39 in 10.0 mi Calm Calm - N/A   Clear
12:15 PM 42.1 °F - 22.6 °F 46% 30.38 in 10.0 mi Calm Calm - N/A   Clear
12:35 PM 43.3 °F 41.7 °F 23.2 °F 45% 30.37 in 10.0 mi East 3.5 mph - N/A   Clear
12:55 PM 43.0 °F - 22.6 °F 45% 30.36 in 10.0 mi Calm Calm - N/A   Clear
1:15 PM 43.7 °F - 23.5 °F 45% 30.35 in 10.0 mi Calm Calm - N/A   Clear
1:35 PM 44.4 °F - 23.2 °F 43% 30.34 in 10.0 mi Calm Calm - N/A   Clear
1:55 PM 44.2 °F 41.8 °F 22.6 °F 42% 30.33 in 10.0 mi South 4.6 mph - N/A   Clear
2:15 PM 44.2 °F 41.8 °F 22.6 °F 42% 30.33 in 10.0 mi SE 4.6 mph - N/A   Clear
2:35 PM 44.2 °F 41.8 °F 22.6 °F 42% 30.33 in 10.0 mi SSE 4.6 mph - N/A   Clear
2:55 PM 44.6 °F 43.1 °F 22.8 °F 42% 30.33 in 10.0 mi SE 3.5 mph - N/A   Clear
3:15 PM 44.6 °F 42.2 °F 22.8 °F 42% 30.32 in 10.0 mi SE 4.6 mph - N/A   Clear
3:35 PM 44.4 °F - 22.8 °F 43% 30.33 in 10.0 mi Calm Calm - N/A   Clear
3:55 PM 43.7 °F 42.1 °F 23.4 °F 45% 30.32 in 10.0 mi South 3.5 mph - N/A   Clear
4:15 PM 42.1 °F 40.2 °F 23.9 °F 49% 30.33 in 10.0 mi SSE 3.5 mph - N/A   Clear
4:35 PM 40.5 °F 38.4 °F 23.5 °F 51% 30.32 in 10.0 mi SE 3.5 mph - N/A   Clear
4:55 PM 40.5 °F 38.4 °F 23.4 °F 51% 30.32 in 10.0 mi SE 3.5 mph - N/A   Clear
5:15 PM 38.3 °F 35.9 °F 24.3 °F 57% 30.32 in 10.0 mi ESE 3.5 mph - N/A   Clear
5:35 PM 37.2 °F - 24.6 °F 60% 30.32 in 10.0 mi Calm Calm - N/A   Clear
5:55 PM 35.8 °F - 24.3 °F 63% 30.33 in 10.0 mi Calm Calm - N/A   Clear
6:15 PM 32.9 °F - 24.6 °F 72% 30.32 in 10.0 mi Calm Calm - N/A   Clear
6:35 PM 32.2 °F - 24.1 °F 72% 30.32 in 10.0 mi Calm Calm - N/A   Clear
6:55 PM 31.1 °F - 24.6 °F 77% 30.32 in 10.0 mi Calm Calm - N/A   Clear
7:15 PM 31.8 °F - 24.3 °F 74% 30.32 in 10.0 mi Calm Calm - N/A   Clear
7:35 PM 29.8 °F - 24.6 °F 81% 30.32 in 10.0 mi Calm Calm - N/A   Clear
7:55 PM 29.1 °F - 24.1 °F 81% 30.32 in 10.0 mi Calm Calm - N/A   Clear
8:15 PM 29.3 °F - 24.6 °F 83% 30.32 in 10.0 mi Calm Calm - N/A   Clear
8:35 PM 29.5 °F - 24.8 °F 83% 30.32 in 10.0 mi Calm Calm - N/A   Clear
8:55 PM 28.9 °F - 24.8 °F 84% 30.32 in 10.0 mi Calm Calm - N/A   Clear
9:35 PM 30.7 °F - 25.2 °F 80% 30.31 in 10.0 mi Calm Calm - N/A   Clear
9:55 PM 28.9 °F - 25.3 °F 86% 30.31 in 10.0 mi Calm Calm - N/A   Scattered Clouds
10:15 PM 29.7 °F - 25.7 °F 85% 30.31 in 10.0 mi Calm Calm - N/A   Scattered Clouds
10:35 PM 32.0 °F - 28.2 °F 86% 30.31 in 10.0 mi Calm Calm - N/A   Mostly Cloudy
10:55 PM 30.9 °F - 27.9 °F 88% 30.31 in 10.0 mi Calm Calm - N/A   Mostly Cloudy
11:15 PM 32.9 °F 29.8 °F 29.3 °F 87% 30.30 in 10.0 mi ESE 3.5 mph - N/A   Overcast
11:35 PM 34.0 °F - 30.4 °F 87% 30.30 in 10.0 mi Calm Calm - N/A   Overcast
11:55 PM 34.7 °F - 30.2 °F 84% 30.30 in 10.0 mi Calm Calm - N/A   Overcast